Pittsfield, MA

6:39 PM EST on November 21, 2019 (GMT -0500)
Pittsfield Municipal

Weather History for KPSF - July, 2019

Change the Weather History Date:

Tuesday, July 23, 2019

  Actual Average Record
Temperature  
Mean Temperature 68 °F 68 °F  
Max Temperature 75 °F 79 °F 101 °F (1926)
Min Temperature 60 °F 57 °F 47 °F (1934)
Degree Days  
Heating Degree Days 0 1  
Month to date heating degree days 0 23  
Since 1 June heating degree days 67 124  
Since 1 July heating degree days 0 23  
Cooling Degree Days 3 4  
Month to date cooling degree days 165 81  
Year to date cooling degree days 222 150  
Since 1 June cooling degree days 216 137  
Growing Degree Days 18 (Base 50)    
Moisture  
Dew Point 60 °F    
Average Humidity 72    
Maximum Humidity 93    
Minimum Humidity 50    
Precipitation  
Precipitation 0.53 in 0.14 in 2.38 in (1938)
Month to date precipitation 3.30 2.97  
Year to date precipitation 25.89 24.41  
Sea Level Pressure  
Sea Level Pressure 29.82 in    
Wind  
Wind Speed 3 mph (NNE)    
Max Wind Speed 9 mph    
Max Gust Speed 12 mph    
Visibility 8 miles    
Events Rain    
T = Trace of Precipitation, MM = Missing Value Source: NWS Daily Summary

Daily Weather History Graph

Daily Weather History Graph

Search for Another Location

Airport or City:

Astronomy

Jul. 23, 2019 Rise Set
Actual Time 5:36 AM EDT 8:22 PM EDT
Civil Twilight 5:03 AM EDT 8:55 PM EDT
Nautical Twilight 4:22 AM EDT 9:36 PM EDT
Astronomical Twilight 3:34 AM EDT 10:23 PM EDT
Moon No Moon Rise 11:54 AM EDT (7/23)
Length of Visible Light 15h 51m
Length of Day
14h 45m
Waning Gibbous, 63% of the Moon is Illuminated
Jul 23
Waning Gibbous
Jul 24
Last Quarter
Jul 31
New
Aug 7
First Quarter
Aug 15
Full

Hourly Weather History & Observations

Time (EDT) Temp. Dew Point Humidity Pressure Visibility Wind Dir Wind Speed Gust Speed Precip Events Conditions
12:06 AM 62.1 °F 60.1 °F 93% 29.82 in 5.0 mi East 3.5 mph - 0.02 in Rain Light Rain
12:23 AM 62.1 °F 60.1 °F 93% 29.83 in 10.0 mi ENE 3.5 mph - 0.03 in Rain Light Rain
12:40 AM 62.1 °F 60.1 °F 93% 29.82 in 10.0 mi Calm Calm - 0.03 in   Overcast
12:54 AM 62.1 °F 60.1 °F 93% 29.76 in 10.0 mi ENE 4.6 mph - 0.03 in Rain Light Rain
1:54 AM 62.1 °F 59.0 °F 90% 29.75 in 4.0 mi NE 5.8 mph - 0.11 in Rain Light Rain
2:18 AM 62.1 °F 59.0 °F 90% 29.81 in 6.0 mi Calm Calm - 0.03 in Rain Light Rain
2:25 AM 62.1 °F 60.1 °F 93% 29.82 in 6.0 mi Calm Calm - 0.04 in Rain Light Rain
2:46 AM 62.1 °F 60.1 °F 93% 29.82 in 4.0 mi Calm Calm - 0.09 in Rain Light Rain
2:54 AM 62.1 °F 59.0 °F 90% 29.75 in 3.0 mi Calm Calm - 0.12 in Rain Rain
3:42 AM 62.1 °F 60.1 °F 93% 29.79 in 10.0 mi NNE 3.5 mph - 0.06 in Rain Light Rain
3:49 AM 62.6 °F 60.8 °F 94% 29.79 in 10.0 mi NNE 3.5 mph - 0.06 in Rain Light Rain
3:54 AM 62.1 °F 60.1 °F 93% 29.74 in 10.0 mi Calm Calm - 0.06 in Rain Light Rain
4:40 AM 62.1 °F 60.1 °F 93% 29.81 in 4.0 mi Calm Calm - 0.02 in Rain Light Rain
4:54 AM 62.1 °F 60.1 °F 93% 29.76 in 5.0 mi Calm Calm - 0.04 in Rain Light Rain
5:21 AM 62.1 °F 60.1 °F 93% 29.81 in 8.0 mi Calm Calm - 0.01 in Rain Light Rain
5:54 AM 62.1 °F 60.1 °F 93% 29.77 in 9.0 mi Calm Calm - 0.02 in Rain Light Rain
5:59 AM 62.1 °F 60.1 °F 93% 29.82 in 8.0 mi Calm Calm - 0.00 in Rain Light Rain
6:04 AM 62.1 °F 60.1 °F 93% 29.82 in 8.0 mi NW 3.5 mph - 0.01 in Rain Light Rain
6:54 AM 62.1 °F 60.1 °F 93% 29.78 in 4.0 mi Calm Calm - 0.06 in Rain Light Rain
7:21 AM 63.0 °F 60.1 °F 90% 29.83 in 4.0 mi Calm Calm - 0.05 in Rain Light Rain
7:54 AM 63.0 °F 60.1 °F 90% 29.77 in 6.0 mi ENE 5.8 mph - 0.09 in Rain Light Rain
8:40 AM 64.0 °F 61.0 °F 90% 29.82 in 10.0 mi NNE 6.9 mph - 0.02 in Rain Light Rain
8:54 AM 64.0 °F 61.0 °F 90% 29.78 in 10.0 mi North 4.6 mph - 0.02 in Rain Light Rain
9:01 AM 64.0 °F 61.0 °F 90% 29.83 in 10.0 mi NE 3.5 mph - 0.00 in Rain Light Rain
9:54 AM 64.9 °F 60.1 °F 84% 29.79 in 10.0 mi NNE 5.8 mph - 0.00 in   Overcast
10:54 AM 64.9 °F 60.1 °F 84% 29.80 in 10.0 mi NE 4.6 mph - N/A   Overcast
11:54 AM 66.0 °F 60.1 °F 81% 29.82 in 9.0 mi North 3.5 mph - 0.00 in   Overcast
12:08 PM 64.9 °F 60.1 °F 84% 29.88 in 2.5 mi North 5.8 mph - 0.01 in Rain Light Rain
12:16 PM 66.0 °F 61.0 °F 84% 29.87 in 3.0 mi North 5.8 mph - 0.01 in Rain Light Rain
12:25 PM 66.9 °F 61.0 °F 81% 29.88 in 9.0 mi Variable 4.6 mph - 0.01 in   Overcast
12:54 PM 69.1 °F 60.1 °F 73% 29.81 in 10.0 mi North 5.8 mph - 0.01 in   Overcast
1:06 PM 68.0 °F 61.0 °F 78% 29.86 in 10.0 mi NE 6.9 mph - N/A   Overcast
1:33 PM 69.1 °F 59.0 °F 70% 29.88 in 10.0 mi NNE 4.6 mph - N/A   Overcast
1:54 PM 72.0 °F 61.0 °F 68% 29.80 in 10.0 mi Variable 4.6 mph - N/A   Mostly Cloudy
2:11 PM 70.0 °F 60.1 °F 71% 29.87 in 10.0 mi NW 3.5 mph - N/A   Mostly Cloudy
2:23 PM 71.1 °F 60.1 °F 68% 29.88 in 10.0 mi WNW 3.5 mph - N/A   Mostly Cloudy
2:54 PM 72.0 °F 60.1 °F 66% 29.82 in 10.0 mi North 3.5 mph - N/A   Mostly Cloudy
3:28 PM 73.9 °F 57.9 °F 57% 29.88 in 10.0 mi NW 3.5 mph - N/A   Scattered Clouds
3:54 PM 75.0 °F 55.9 °F 51% 29.82 in 10.0 mi NW 6.9 mph - N/A   Partly Cloudy
4:54 PM 73.9 °F 55.9 °F 53% 29.82 in 10.0 mi North 3.5 mph - N/A   Mostly Cloudy
5:54 PM 72.0 °F 57.9 °F 61% 29.83 in 10.0 mi Calm Calm - N/A   Clear
6:54 PM 70.0 °F 59.0 °F 68% 29.86 in 10.0 mi West 5.8 mph - N/A   Clear
7:54 PM 68.0 °F 61.0 °F 78% 29.86 in 10.0 mi WSW 3.5 mph - N/A   Clear
8:54 PM 63.0 °F 59.0 °F 87% 29.87 in 10.0 mi SSE 3.5 mph - N/A   Clear
9:54 PM 63.0 °F 59.0 °F 87% 29.89 in 10.0 mi Calm Calm - N/A   Clear
10:54 PM 62.1 °F 59.0 °F 90% 29.89 in 10.0 mi Calm Calm - N/A   Clear
11:54 PM 62.1 °F 57.9 °F 86% 29.87 in 10.0 mi Calm Calm - N/A   Clear